Flag for Portugal Weather past 2 weeks in Setúbal, Portugal

Now
54 °F

Passing clouds.


Feels Like: 52 °F
Forecast: 52 / 64 °F
Wind: 6 mph from West

Location: Lisbon Portela Airport

Current Time: Mar 2, 2015 at 5:46:48 AM

Latest Report: Mar 2, 2015 at 5:00 AM


Visibility: N/A

Pressure: 30.33 "Hg

Humidity: 100%

Dew point: 54 °F

Location of SetúbalLocation

Historic Weather in Setúbal — Graph

°F

Setúbal temperature yesterday

Maximum temperature yesterday: 61 °F (at 1:00 PM)
Minimum temperature yesterday: 46 °F (at 6:00 AM)
Average temperature yesterday: 55 °F

Past Weeks' High & Low Weather Summary

 TemperatureHumidityPressure
High63 °F (Feb 19, 3:00 PM)100% (Feb 20, 11:30 PM)30.60 "Hg (Feb 20, 11:30 PM)
Low45 °F (Feb 18, 7:00 AM)38% (Feb 17, 7:30 PM)29.92 "Hg (Feb 21, 4:00 AM)
Average53 °F77%30.31 "Hg
* Reported Feb 15 4:00 AM — Mar 2 4:30 AM, Setúbal, Weather by CustomWeather, © 2015

Note: Actual official high and low records may vary slightly from our data, if they occured in-between our weather recording intervals... More about our weather records

Advertising

Setúbal weather history for previous 24 hours

 ConditionsComfort  
Time TempWeatherWind HumidityBarometerVisibility
4:30 AM
Mon, Mar 2
54 °FPassing clouds.3 mph100%30.30 "HgN/A
4:00 AM54 °FPassing clouds.5 mph100%30.33 "HgN/A
3:30 AM55 °FPassing clouds.5 mph94%30.33 "Hg6 mi
3:00 AM55 °FPassing clouds.6 mph94%30.33 "Hg5 mi
2:30 AM55 °FPassing clouds.5 mph94%30.33 "Hg4 mi
2:00 AM55 °FPassing clouds.6 mph94%30.36 "HgN/A
1:30 AM55 °FPassing clouds.5 mph94%30.36 "HgN/A
1:00 AM55 °FPassing clouds.7 mph94%30.36 "HgN/A
12:30 AM55 °FPassing clouds.6 mph94%30.36 "HgN/A
12:00 AM55 °FPassing clouds.5 mph100%30.36 "HgN/A
11:30 PM
Sun, Mar 1
55 °FPassing clouds.7 mph100%30.36 "HgN/A
11:00 PM55 °FPassing clouds.5 mph100%30.39 "HgN/A
10:30 PM55 °FPassing clouds.5 mph94%30.39 "HgN/A
10:00 PM55 °FPassing clouds.2 mph94%30.39 "HgN/A
9:30 PM55 °FPartly cloudy.6 mph94%30.39 "HgN/A
9:00 PM55 °FPassing clouds.3 mph94%30.36 "HgN/A
8:30 PM55 °FPassing clouds.3 mph94%30.36 "HgN/A
8:00 PM55 °FPassing clouds.5 mph94%30.36 "HgN/A
7:30 PM55 °FPassing clouds.3 mph94%30.36 "HgN/A
7:00 PM55 °FPassing clouds.7 mph94%30.36 "HgN/A
6:30 PM55 °FPassing clouds.8 mph94%30.36 "HgN/A
6:00 PM57 °FPartly sunny.8 mph82%30.33 "HgN/A
5:30 PM57 °FPartly sunny.8 mph82%30.33 "HgN/A
5:00 PM57 °FPartly sunny.10 mph82%30.33 "HgN/A
4:30 PM59 °FPartly sunny.8 mph77%30.33 "HgN/A
4:00 PM59 °FPartly sunny.6 mph77%30.33 "HgN/A
3:00 PM59 °FPartly sunny.7 mph82%30.33 "HgN/A
2:30 PM59 °FPartly sunny.6 mph77%30.33 "HgN/A
2:00 PM59 °FPartly sunny.8 mph77%30.36 "HgN/A
1:30 PM61 °FPartly sunny.9 mph72%30.36 "HgN/A
1:00 PM61 °FPartly sunny.9 mph72%30.39 "HgN/A
12:30 PM59 °FPartly sunny.8 mph77%30.39 "HgN/A
12:00 PM59 °FPartly sunny.7 mph77%30.39 "HgN/A
11:30 AM59 °FScattered clouds.8 mph77%30.39 "HgN/A
11:00 AM59 °FScattered clouds.8 mph77%30.39 "HgN/A
10:30 AM57 °FScattered clouds.7 mph82%30.39 "HgN/A
10:00 AM57 °FPassing clouds.7 mph82%30.39 "HgN/A
9:30 AM55 °FPassing clouds.5 mph88%30.39 "HgN/A
9:00 AM54 °FPassing clouds.5 mph94%30.39 "HgN/A
8:30 AM52 °FSunny.6 mph94%30.39 "Hg10 mi
8:00 AM50 °FPassing clouds.3 mph94%30.36 "HgN/A
7:30 AM48 °FPassing clouds.3 mph94%30.36 "HgN/A
7:00 AM48 °FPassing clouds.3 mph94%30.36 "HgN/A
6:30 AM50 °FClear.5 mph94%30.36 "Hg10 mi
6:00 AM46 °FClear.3 mph100%30.36 "Hg10 mi
5:30 AM48 °FClear.2 mph94%30.36 "Hg10 mi
5:00 AM50 °FClear.No wind88%30.36 "Hg10 mi
Weather by CustomWeather, © 2015

See weather overviewHow to use our weather pages